Year,Month,Day,Hour,Minute,Value (Times are PST for temperature in C)
2020,06,09,09,03,11.90
2020,06,09,09,04,11.90
2020,06,09,09,05,11.90
2020,06,09,09,06,11.90
2020,06,09,09,07,11.90
2020,06,09,09,08,11.90
2020,06,09,09,09,11.90
2020,06,09,09,10,11.90
2020,06,09,09,11,11.90
2020,06,09,09,12,12.00
2020,06,09,09,13,12.00
2020,06,09,09,14,12.00
2020,06,09,09,15,12.00
2020,06,09,09,16,12.00
2020,06,09,09,17,12.00
2020,06,09,09,18,12.00
2020,06,09,09,19,12.00
2020,06,09,09,20,12.00
2020,06,09,09,21,12.00
2020,06,09,09,22,12.00
2020,06,09,09,23,12.00
2020,06,09,09,24,12.00
2020,06,09,09,25,12.00
2020,06,09,09,26,12.00
2020,06,09,09,27,12.00
2020,06,09,09,28,12.00
2020,06,09,09,29,12.00
2020,06,09,09,30,12.00
2020,06,09,09,31,12.00
2020,06,09,09,32,12.10
2020,06,09,09,33,12.10
2020,06,09,09,34,12.10
2020,06,09,09,35,12.10
2020,06,09,09,36,12.10
2020,06,09,09,37,12.10
2020,06,09,09,38,12.10
2020,06,09,09,39,12.10
2020,06,09,09,40,12.10
2020,06,09,09,41,12.10
2020,06,09,09,42,12.10
2020,06,09,09,43,12.10
2020,06,09,09,44,12.10
2020,06,09,09,45,12.10
2020,06,09,09,46,12.10
2020,06,09,09,47,12.10
2020,06,09,09,48,12.10
2020,06,09,09,49,12.10
2020,06,09,09,50,12.10
2020,06,09,09,51,12.10
2020,06,09,09,52,12.10
2020,06,09,09,53,12.10
2020,06,09,09,54,12.10
2020,06,09,09,55,12.10
2020,06,09,09,56,12.10
2020,06,09,09,57,12.10
2020,06,09,09,58,12.10
2020,06,09,09,59,12.10
2020,06,09,10,00,12.10
2020,06,09,10,01,12.10
2020,06,09,10,02,12.10
2020,06,09,10,03,12.10
2020,06,09,10,04,12.10
2020,06,09,10,05,12.00
2020,06,09,10,06,12.00
2020,06,09,10,07,11.90
2020,06,09,10,08,11.90
2020,06,09,10,09,11.90
2020,06,09,10,10,11.90
2020,06,09,10,11,12.00
2020,06,09,10,12,12.00
2020,06,09,10,13,12.00
2020,06,09,10,14,12.00
2020,06,09,10,15,12.10
2020,06,09,10,16,12.10
2020,06,09,10,17,12.10
2020,06,09,10,18,12.10
2020,06,09,10,19,12.10
2020,06,09,10,20,12.10
2020,06,09,10,21,12.10
2020,06,09,10,22,12.10
2020,06,09,10,23,12.10
2020,06,09,10,24,12.10
2020,06,09,10,25,12.10
2020,06,09,10,26,12.10
2020,06,09,10,27,12.10
2020,06,09,10,28,12.10
2020,06,09,10,29,12.10
2020,06,09,10,30,12.10
2020,06,09,10,31,12.10
2020,06,09,10,32,12.10
2020,06,09,10,33,12.10
2020,06,09,10,34,12.10
2020,06,09,10,35,12.00
2020,06,09,10,36,12.00
2020,06,09,10,37,12.00
2020,06,09,10,38,12.00
2020,06,09,10,39,12.00
2020,06,09,10,40,12.00
2020,06,09,10,41,12.00
2020,06,09,10,42,11.90
2020,06,09,10,43,11.90
2020,06,09,10,44,11.90
2020,06,09,10,45,11.80
2020,06,09,10,46,11.80
2020,06,09,10,47,11.80
2020,06,09,10,48,11.80
2020,06,09,10,49,11.80
2020,06,09,10,50,11.80
2020,06,09,10,51,11.80
2020,06,09,10,52,11.80
2020,06,09,10,53,11.80
2020,06,09,10,54,11.80
2020,06,09,10,55,11.80
2020,06,09,10,56,11.80
2020,06,09,10,57,11.80
2020,06,09,10,58,11.80
2020,06,09,10,59,11.80
2020,06,09,11,00,11.80
2020,06,09,11,01,11.80
2020,06,09,11,02,11.80
2020,06,09,11,03,11.80
2020,06,09,11,04,11.80
2020,06,09,11,05,11.80
2020,06,09,11,06,11.80
2020,06,09,11,07,11.80
2020,06,09,11,08,11.80
2020,06,09,11,09,11.80
2020,06,09,11,10,11.80
2020,06,09,11,11,11.80
2020,06,09,11,12,11.80
2020,06,09,11,13,11.80
2020,06,09,11,14,11.80
2020,06,09,11,15,11.80
2020,06,09,11,16,11.80
2020,06,09,11,17,11.80
2020,06,09,11,18,11.90
2020,06,09,11,19,11.80
2020,06,09,11,20,11.80
2020,06,09,11,21,11.80
2020,06,09,11,22,11.80
2020,06,09,11,23,11.80
2020,06,09,11,24,11.80
2020,06,09,11,25,11.80
2020,06,09,11,26,11.80
2020,06,09,11,27,11.80
2020,06,09,11,28,11.80
2020,06,09,11,29,11.90
2020,06,09,11,30,11.90
2020,06,09,11,31,11.90
2020,06,09,11,32,11.90
2020,06,09,11,33,11.90
2020,06,09,11,34,11.90
2020,06,09,11,35,11.90
2020,06,09,11,36,11.90
2020,06,09,11,37,11.90
2020,06,09,11,38,11.90
2020,06,09,11,39,12.00
2020,06,09,11,40,12.00
2020,06,09,11,41,12.10
2020,06,09,11,42,12.10
2020,06,09,11,43,12.10
2020,06,09,11,44,12.10
2020,06,09,11,45,12.10
2020,06,09,11,46,12.10
2020,06,09,11,47,12.00
2020,06,09,11,48,12.00
2020,06,09,11,49,12.00
2020,06,09,11,50,11.90
2020,06,09,11,51,11.90
2020,06,09,11,52,12.00
2020,06,09,11,53,12.00
2020,06,09,11,54,12.00
2020,06,09,11,55,12.00
2020,06,09,11,56,12.00
2020,06,09,11,57,12.00
2020,06,09,11,58,12.00
2020,06,09,11,59,12.10
2020,06,09,12,00,12.10
2020,06,09,12,01,12.10
2020,06,09,12,02,12.20
2020,06,09,12,03,12.20
2020,06,09,12,04,12.30
2020,06,09,12,05,12.30
2020,06,09,12,06,12.40
2020,06,09,12,07,12.40
2020,06,09,12,08,12.50
2020,06,09,12,09,12.50
2020,06,09,12,10,12.60
2020,06,09,12,11,12.70
2020,06,09,12,12,12.70
2020,06,09,12,13,12.70
2020,06,09,12,14,12.70
2020,06,09,12,15,12.70
2020,06,09,12,16,12.80
2020,06,09,12,17,12.80
2020,06,09,12,18,12.90
2020,06,09,12,19,12.90
2020,06,09,12,20,12.90
2020,06,09,12,21,12.90
2020,06,09,12,22,12.90
2020,06,09,12,23,12.90
2020,06,09,12,24,12.90
2020,06,09,12,25,12.90
2020,06,09,12,26,12.90
2020,06,09,12,27,12.90
2020,06,09,12,28,12.90
2020,06,09,12,29,12.90
2020,06,09,12,30,12.90
2020,06,09,12,31,12.90
2020,06,09,12,32,13.00
2020,06,09,12,33,13.00
2020,06,09,12,34,13.10
2020,06,09,12,35,13.10
2020,06,09,12,36,13.00
2020,06,09,12,37,13.00
2020,06,09,12,38,13.00
2020,06,09,12,39,12.90
2020,06,09,12,40,12.80
2020,06,09,12,41,12.80
2020,06,09,12,42,12.90
2020,06,09,12,43,12.90
2020,06,09,12,44,12.90
2020,06,09,12,45,12.90
2020,06,09,12,46,12.90
2020,06,09,12,47,12.90
2020,06,09,12,48,13.00
2020,06,09,12,49,13.10
2020,06,09,12,50,13.00
2020,06,09,12,51,13.00
2020,06,09,12,52,12.90
2020,06,09,12,53,12.90
2020,06,09,12,54,12.90
2020,06,09,12,55,13.00
2020,06,09,12,56,13.00
2020,06,09,12,57,13.00
2020,06,09,12,58,13.00
2020,06,09,12,59,13.00
2020,06,09,13,00,13.00
2020,06,09,13,01,12.90
2020,06,09,13,02,12.90
2020,06,09,13,03,12.90
2020,06,09,13,04,13.00
2020,06,09,13,05,13.00
2020,06,09,13,06,13.00
2020,06,09,13,07,13.00
2020,06,09,13,08,13.00
2020,06,09,13,09,13.00
2020,06,09,13,10,13.00
2020,06,09,13,11,13.00
2020,06,09,13,12,13.10
2020,06,09,13,13,13.10
2020,06,09,13,14,13.10
2020,06,09,13,15,13.10
2020,06,09,13,16,13.10
2020,06,09,13,17,13.10
2020,06,09,13,18,13.20
2020,06,09,13,19,13.10
2020,06,09,13,20,13.00
2020,06,09,13,21,13.00
2020,06,09,13,22,13.00
2020,06,09,13,23,12.90
2020,06,09,13,24,13.00
2020,06,09,13,25,12.90
2020,06,09,13,26,12.90
2020,06,09,13,27,12.90
2020,06,09,13,28,12.90
2020,06,09,13,29,12.90
2020,06,09,13,30,12.90
2020,06,09,13,31,12.80
2020,06,09,13,32,12.80
2020,06,09,13,33,12.80
2020,06,09,13,34,12.80
2020,06,09,13,35,12.80
2020,06,09,13,36,12.80
2020,06,09,13,37,12.80
2020,06,09,13,38,12.90
2020,06,09,13,39,12.90
2020,06,09,13,40,12.90
2020,06,09,13,41,12.90
2020,06,09,13,42,13.00
2020,06,09,13,43,13.00
2020,06,09,13,44,13.00
2020,06,09,13,45,13.00
2020,06,09,13,46,13.00
2020,06,09,13,47,13.00
2020,06,09,13,48,13.00
2020,06,09,13,49,13.00
2020,06,09,13,50,13.00
2020,06,09,13,51,13.00
2020,06,09,13,52,13.10
2020,06,09,13,53,13.20
2020,06,09,13,54,13.20
2020,06,09,13,55,13.10
2020,06,09,13,56,13.10
2020,06,09,13,57,13.10
2020,06,09,13,58,13.10
2020,06,09,13,59,13.10
2020,06,09,14,00,13.10
2020,06,09,14,01,13.00
2020,06,09,14,02,13.00
2020,06,09,14,03,13.00
2020,06,09,14,04,13.10
2020,06,09,14,05,13.10
2020,06,09,14,06,13.10
2020,06,09,14,07,13.10
2020,06,09,14,08,13.10
2020,06,09,14,09,13.10
2020,06,09,14,10,13.10
2020,06,09,14,11,13.10
2020,06,09,14,12,13.10
2020,06,09,14,13,13.10
2020,06,09,14,14,13.10
2020,06,09,14,15,13.20
2020,06,09,14,16,13.20
2020,06,09,14,17,13.20
2020,06,09,14,18,13.30
2020,06,09,14,19,13.30
2020,06,09,14,20,13.30
2020,06,09,14,21,13.30
2020,06,09,14,22,13.30
2020,06,09,14,23,13.30
2020,06,09,14,24,13.30
2020,06,09,14,25,13.30
2020,06,09,14,26,13.30
2020,06,09,14,27,13.30
2020,06,09,14,28,13.30
2020,06,09,14,29,13.30
2020,06,09,14,30,13.30
2020,06,09,14,31,13.40
2020,06,09,14,32,13.50
2020,06,09,14,33,13.60
2020,06,09,14,34,13.70
2020,06,09,14,35,13.80
2020,06,09,14,36,13.90
2020,06,09,14,37,13.90
2020,06,09,14,38,13.80
2020,06,09,14,39,13.80
2020,06,09,14,40,13.80
2020,06,09,14,41,13.80
2020,06,09,14,42,13.80
2020,06,09,14,43,13.70
2020,06,09,14,44,13.70
2020,06,09,14,45,13.70
2020,06,09,14,46,13.70
2020,06,09,14,47,13.70
2020,06,09,14,48,13.80
2020,06,09,14,49,13.80
2020,06,09,14,50,13.70
2020,06,09,14,51,13.70
2020,06,09,14,52,13.70
2020,06,09,14,53,13.70
2020,06,09,14,54,13.80
2020,06,09,14,55,13.80
2020,06,09,14,56,13.80
2020,06,09,14,57,13.80
2020,06,09,14,58,13.80
2020,06,09,14,59,13.80
2020,06,09,15,00,13.80
2020,06,09,15,01,13.70
2020,06,09,15,02,13.70
2020,06,09,15,03,13.70
2020,06,09,15,04,13.70
2020,06,09,15,05,13.70
2020,06,09,15,06,13.80
2020,06,09,15,07,13.80
2020,06,09,15,08,13.80
2020,06,09,15,09,13.80
2020,06,09,15,10,13.90
2020,06,09,15,11,13.90
2020,06,09,15,12,13.90
2020,06,09,15,13,14.00
2020,06,09,15,14,14.00
2020,06,09,15,15,13.90
2020,06,09,15,16,13.90
2020,06,09,15,17,13.80
2020,06,09,15,18,13.80
2020,06,09,15,19,13.80
2020,06,09,15,20,13.80
2020,06,09,15,21,13.80
2020,06,09,15,22,13.90
2020,06,09,15,23,13.90
2020,06,09,15,24,14.00
2020,06,09,15,25,14.00
2020,06,09,15,26,14.10
2020,06,09,15,27,14.10
2020,06,09,15,28,14.10
2020,06,09,15,29,14.10
2020,06,09,15,30,14.10
2020,06,09,15,31,14.10
2020,06,09,15,32,14.20
2020,06,09,15,33,14.20
2020,06,09,15,34,14.20
2020,06,09,15,35,14.30
2020,06,09,15,36,14.30
2020,06,09,15,37,14.20
2020,06,09,15,38,14.20
2020,06,09,15,39,14.10
2020,06,09,15,40,14.10
2020,06,09,15,41,14.20
2020,06,09,15,42,14.30
2020,06,09,15,43,14.30
2020,06,09,15,44,14.40
2020,06,09,15,45,14.50
2020,06,09,15,46,14.50
2020,06,09,15,47,14.40
2020,06,09,15,48,14.40
2020,06,09,15,49,14.50
2020,06,09,15,50,14.60
2020,06,09,15,51,14.60
2020,06,09,15,52,14.60
2020,06,09,15,53,14.50
2020,06,09,15,54,14.40
2020,06,09,15,55,14.40
2020,06,09,15,56,14.40
2020,06,09,15,57,14.40
2020,06,09,15,58,14.40
2020,06,09,15,59,14.40
2020,06,09,16,00,14.30
2020,06,09,16,01,14.20
2020,06,09,16,02,14.10
2020,06,09,16,03,14.10
2020,06,09,16,04,14.10
2020,06,09,16,05,14.10
2020,06,09,16,06,14.00
2020,06,09,16,07,13.90
2020,06,09,16,08,13.80
2020,06,09,16,09,13.80
2020,06,09,16,10,13.80
2020,06,09,16,11,13.70
2020,06,09,16,12,13.70
2020,06,09,16,13,13.70
2020,06,09,16,14,13.70
2020,06,09,16,15,13.80
2020,06,09,16,16,13.80
2020,06,09,16,17,13.80
2020,06,09,16,18,13.80
2020,06,09,16,19,13.80
2020,06,09,16,20,13.80
2020,06,09,16,21,13.70
2020,06,09,16,22,13.70
2020,06,09,16,23,13.70
2020,06,09,16,24,13.70
2020,06,09,16,25,13.70
2020,06,09,16,26,13.80
2020,06,09,16,27,13.80
2020,06,09,16,28,13.80
2020,06,09,16,29,13.70
2020,06,09,16,30,13.80
2020,06,09,16,31,13.80
2020,06,09,16,32,13.90
2020,06,09,16,33,13.90
2020,06,09,16,34,13.80
2020,06,09,16,35,13.70
2020,06,09,16,36,13.70
2020,06,09,16,37,13.70
2020,06,09,16,38,13.70
2020,06,09,16,39,13.70
2020,06,09,16,40,13.70
2020,06,09,16,41,13.70
2020,06,09,16,42,13.70
2020,06,09,16,43,13.70
2020,06,09,16,44,13.70
2020,06,09,16,45,13.70
2020,06,09,16,46,13.70
2020,06,09,16,47,13.80
2020,06,09,16,48,13.80
2020,06,09,16,49,13.80
2020,06,09,16,50,13.80
2020,06,09,16,51,13.80
2020,06,09,16,52,13.80
2020,06,09,16,53,13.80
2020,06,09,16,54,13.80
2020,06,09,16,55,13.80
2020,06,09,16,56,13.80
2020,06,09,16,57,13.80
2020,06,09,16,58,13.80
2020,06,09,16,59,13.80
2020,06,09,17,00,13.80
2020,06,09,17,01,13.80
2020,06,09,17,02,13.80
2020,06,09,17,03,13.80
2020,06,09,17,04,13.70
2020,06,09,17,05,13.80
2020,06,09,17,06,13.80
2020,06,09,17,07,13.80
2020,06,09,17,08,13.80
2020,06,09,17,09,13.80
2020,06,09,17,10,13.80
2020,06,09,17,11,13.70
2020,06,09,17,12,13.70
2020,06,09,17,13,13.80
2020,06,09,17,14,13.80
2020,06,09,17,15,13.80
2020,06,09,17,16,13.80
2020,06,09,17,17,13.90
2020,06,09,17,18,13.90
2020,06,09,17,19,13.90
2020,06,09,17,20,13.90
2020,06,09,17,21,13.90
2020,06,09,17,22,13.80
2020,06,09,17,23,13.80
2020,06,09,17,24,13.80
2020,06,09,17,25,13.80
2020,06,09,17,26,13.80
2020,06,09,17,27,13.80
2020,06,09,17,28,13.80
2020,06,09,17,29,13.70
2020,06,09,17,30,13.70
2020,06,09,17,31,13.70
2020,06,09,17,32,13.70
2020,06,09,17,33,13.70
2020,06,09,17,34,13.70
2020,06,09,17,35,13.70
2020,06,09,17,36,13.70
2020,06,09,17,37,13.70
2020,06,09,17,38,13.70
2020,06,09,17,39,13.60
2020,06,09,17,40,13.60
2020,06,09,17,41,13.60
2020,06,09,17,42,13.60
2020,06,09,17,43,13.60
2020,06,09,17,44,13.60
2020,06,09,17,45,13.50
2020,06,09,17,46,13.40
2020,06,09,17,47,13.40
2020,06,09,17,48,13.40
2020,06,09,17,49,13.40
2020,06,09,17,50,13.40
2020,06,09,17,51,13.40
2020,06,09,17,52,13.40
2020,06,09,17,53,13.40
2020,06,09,17,54,13.30
2020,06,09,17,55,13.30
2020,06,09,17,56,13.30
2020,06,09,17,57,13.30
2020,06,09,17,58,13.30
2020,06,09,17,59,13.30
2020,06,09,18,00,13.30
2020,06,09,18,01,13.30
2020,06,09,18,02,13.30
2020,06,09,18,03,13.30
2020,06,09,18,04,13.30
2020,06,09,18,05,13.30
2020,06,09,18,06,13.30
2020,06,09,18,07,13.30
2020,06,09,18,08,13.30
2020,06,09,18,09,13.30
2020,06,09,18,10,13.30
2020,06,09,18,11,13.30
2020,06,09,18,12,13.20
2020,06,09,18,13,13.20
2020,06,09,18,14,13.20
2020,06,09,18,15,13.20
2020,06,09,18,16,13.20
2020,06,09,18,17,13.20
2020,06,09,18,18,13.20
2020,06,09,18,19,13.30
2020,06,09,18,20,13.30
2020,06,09,18,21,13.30
2020,06,09,18,22,13.30
2020,06,09,18,23,13.30
2020,06,09,18,24,13.30
2020,06,09,18,25,13.30
2020,06,09,18,26,13.30
2020,06,09,18,27,13.30
2020,06,09,18,28,13.30
2020,06,09,18,29,13.30
2020,06,09,18,30,13.30
2020,06,09,18,31,13.40
2020,06,09,18,32,13.40
2020,06,09,18,33,13.40
2020,06,09,18,34,13.40
2020,06,09,18,35,13.40
2020,06,09,18,36,13.40
2020,06,09,18,37,13.40
2020,06,09,18,38,13.40
2020,06,09,18,39,13.40
2020,06,09,18,40,13.40
2020,06,09,18,41,13.30
2020,06,09,18,42,13.30
2020,06,09,18,43,13.30
2020,06,09,18,44,13.30
2020,06,09,18,45,13.30
2020,06,09,18,46,13.30
2020,06,09,18,47,13.30
2020,06,09,18,48,13.30
2020,06,09,18,49,13.30
2020,06,09,18,50,13.30
2020,06,09,18,51,13.30
2020,06,09,18,52,13.30
2020,06,09,18,53,13.30
2020,06,09,18,54,13.30
2020,06,09,18,55,13.30
2020,06,09,18,56,13.30
2020,06,09,18,57,13.30
2020,06,09,18,58,13.30
2020,06,09,18,59,13.30
2020,06,09,19,00,13.30
2020,06,09,19,01,13.30
2020,06,09,19,02,13.30
2020,06,09,19,03,13.30
2020,06,09,19,04,13.30
2020,06,09,19,05,13.30
2020,06,09,19,06,13.30
2020,06,09,19,07,13.30
2020,06,09,19,08,13.30
2020,06,09,19,09,13.30
2020,06,09,19,10,13.30
2020,06,09,19,11,13.30
2020,06,09,19,12,13.30
2020,06,09,19,13,13.30
2020,06,09,19,14,13.30
2020,06,09,19,15,13.30
2020,06,09,19,16,13.30
2020,06,09,19,17,13.20
2020,06,09,19,18,13.20
2020,06,09,19,19,13.20
2020,06,09,19,20,13.20
2020,06,09,19,21,13.20
2020,06,09,19,22,13.20
2020,06,09,19,23,13.20
2020,06,09,19,24,13.20
2020,06,09,19,25,13.20
2020,06,09,19,26,13.20
2020,06,09,19,27,13.20
2020,06,09,19,28,13.20
2020,06,09,19,29,13.20
2020,06,09,19,30,13.20
2020,06,09,19,31,13.20
2020,06,09,19,32,13.20
2020,06,09,19,33,13.10
2020,06,09,19,34,13.10
2020,06,09,19,35,13.20
2020,06,09,19,36,13.10
2020,06,09,19,37,13.10
2020,06,09,19,38,13.10
2020,06,09,19,39,13.10
2020,06,09,19,40,13.10
2020,06,09,19,41,13.10
2020,06,09,19,42,13.10
2020,06,09,19,43,13.10
2020,06,09,19,44,13.10
2020,06,09,19,45,13.10
2020,06,09,19,46,13.10
2020,06,09,19,47,13.20
2020,06,09,19,48,13.20
2020,06,09,19,49,13.20
2020,06,09,19,50,13.20
2020,06,09,19,51,13.20
2020,06,09,19,52,13.20
2020,06,09,19,53,13.20
2020,06,09,19,54,13.30
2020,06,09,19,55,13.30
2020,06,09,19,56,13.30
2020,06,09,19,57,13.30
2020,06,09,19,58,13.30
2020,06,09,19,59,13.30
2020,06,09,20,00,13.30
2020,06,09,20,01,13.20
2020,06,09,20,02,13.20
2020,06,09,20,03,13.20
2020,06,09,20,04,13.20
2020,06,09,20,05,13.20
2020,06,09,20,06,13.20
2020,06,09,20,07,13.20
2020,06,09,20,08,13.20
2020,06,09,20,09,13.20
2020,06,09,20,10,13.20
2020,06,09,20,11,13.20
2020,06,09,20,12,13.20
2020,06,09,20,13,13.20
2020,06,09,20,14,13.20
2020,06,09,20,15,13.20
2020,06,09,20,16,13.20
2020,06,09,20,17,13.20
2020,06,09,20,18,13.20
2020,06,09,20,19,13.30
2020,06,09,20,20,13.30
2020,06,09,20,21,13.30
2020,06,09,20,22,13.30
2020,06,09,20,23,13.30
2020,06,09,20,24,13.30
2020,06,09,20,25,13.30
2020,06,09,20,26,13.30
2020,06,09,20,27,13.30
2020,06,09,20,28,13.30
2020,06,09,20,29,13.30
2020,06,09,20,30,13.20
2020,06,09,20,31,13.20
2020,06,09,20,32,13.20
2020,06,09,20,33,13.20
2020,06,09,20,34,13.20
2020,06,09,20,35,13.20
2020,06,09,20,36,13.10
2020,06,09,20,37,13.10
2020,06,09,20,38,13.10
2020,06,09,20,39,13.10
2020,06,09,20,40,13.10
2020,06,09,20,41,13.10
2020,06,09,20,42,13.10
2020,06,09,20,43,13.10
2020,06,09,20,44,13.10
2020,06,09,20,45,13.10
2020,06,09,20,46,13.10
2020,06,09,20,47,13.10
2020,06,09,20,48,13.10
2020,06,09,20,49,13.10
2020,06,09,20,50,13.10
2020,06,09,20,51,13.10
2020,06,09,20,52,13.10
2020,06,09,20,53,13.10
2020,06,09,20,54,13.10
2020,06,09,20,55,13.10
2020,06,09,20,56,13.10
2020,06,09,20,57,13.10
2020,06,09,20,58,13.00
2020,06,09,20,59,13.00
2020,06,09,21,00,13.00
2020,06,09,21,01,13.00
2020,06,09,21,02,13.00
2020,06,09,21,03,13.00
2020,06,09,21,04,13.00
2020,06,09,21,05,13.00
2020,06,09,21,06,12.90
2020,06,09,21,07,13.00
2020,06,09,21,08,12.90
2020,06,09,21,09,12.90
2020,06,09,21,10,12.90
2020,06,09,21,11,12.90
2020,06,09,21,12,12.90
2020,06,09,21,13,12.90
2020,06,09,21,14,12.90
2020,06,09,21,15,12.90
2020,06,09,21,16,12.90
2020,06,09,21,17,12.90
2020,06,09,21,18,12.90
2020,06,09,21,19,12.90
2020,06,09,21,20,12.90
2020,06,09,21,21,12.90
2020,06,09,21,22,12.90
2020,06,09,21,23,12.90
2020,06,09,21,24,12.90
2020,06,09,21,25,12.90
2020,06,09,21,26,12.90
2020,06,09,21,27,12.90
2020,06,09,21,28,12.90
2020,06,09,21,29,12.90
2020,06,09,21,30,12.90
2020,06,09,21,31,12.90
2020,06,09,21,32,12.90
2020,06,09,21,33,12.90
2020,06,09,21,34,12.90
2020,06,09,21,35,12.90
2020,06,09,21,36,12.90
2020,06,09,21,37,12.90
2020,06,09,21,38,12.90
2020,06,09,21,39,12.90
2020,06,09,21,40,12.90
2020,06,09,21,41,12.90
2020,06,09,21,42,12.90
2020,06,09,21,43,12.90
2020,06,09,21,44,12.90
2020,06,09,21,45,12.90
2020,06,09,21,46,12.90
2020,06,09,21,47,12.90
2020,06,09,21,48,12.90
2020,06,09,21,49,12.90
2020,06,09,21,50,12.90
2020,06,09,21,51,12.90
2020,06,09,21,52,12.90
2020,06,09,21,53,12.90
2020,06,09,21,54,12.90
2020,06,09,21,55,12.90
2020,06,09,21,56,12.90
2020,06,09,21,57,12.90
2020,06,09,21,58,12.90
2020,06,09,21,59,12.90
2020,06,09,22,00,12.90
2020,06,09,22,01,12.90
2020,06,09,22,02,12.90
2020,06,09,22,03,12.90
2020,06,09,22,04,12.90
2020,06,09,22,05,12.90
2020,06,09,22,06,13.00
2020,06,09,22,07,13.00
2020,06,09,22,08,12.90
2020,06,09,22,09,12.90
2020,06,09,22,10,12.90
2020,06,09,22,11,12.90
2020,06,09,22,12,12.90
2020,06,09,22,13,12.90
2020,06,09,22,14,12.90
2020,06,09,22,15,12.90
2020,06,09,22,16,12.90
2020,06,09,22,17,12.90
2020,06,09,22,18,12.90
2020,06,09,22,19,12.90
2020,06,09,22,20,12.90
2020,06,09,22,21,12.90
2020,06,09,22,22,12.90
2020,06,09,22,23,12.90
2020,06,09,22,24,12.90
2020,06,09,22,25,12.90
2020,06,09,22,26,12.90
2020,06,09,22,27,12.90
2020,06,09,22,28,12.90
2020,06,09,22,29,12.90
2020,06,09,22,30,12.90
2020,06,09,22,31,12.90
2020,06,09,22,32,12.90
2020,06,09,22,33,12.90
2020,06,09,22,34,12.90
2020,06,09,22,35,12.90
2020,06,09,22,36,12.90
2020,06,09,22,37,12.90
2020,06,09,22,38,12.90
2020,06,09,22,39,12.90
2020,06,09,22,40,12.90
2020,06,09,22,41,12.90
2020,06,09,22,42,12.90
2020,06,09,22,43,12.90
2020,06,09,22,44,12.90
2020,06,09,22,45,12.90
2020,06,09,22,46,12.90
2020,06,09,22,47,12.90
2020,06,09,22,48,12.90
2020,06,09,22,49,12.90
2020,06,09,22,50,12.80
2020,06,09,22,51,12.90
2020,06,09,22,52,12.90
2020,06,09,22,53,12.90
2020,06,09,22,54,12.90
2020,06,09,22,55,12.90
2020,06,09,22,56,12.80
2020,06,09,22,57,12.80
2020,06,09,22,58,12.80
2020,06,09,22,59,12.80
2020,06,09,23,00,12.80
2020,06,09,23,01,12.90
2020,06,09,23,02,12.80
2020,06,09,23,03,12.80
2020,06,09,23,04,12.80
2020,06,09,23,05,12.90
2020,06,09,23,06,12.80
2020,06,09,23,07,12.80
2020,06,09,23,08,12.90
2020,06,09,23,09,12.90
2020,06,09,23,10,12.90
2020,06,09,23,11,12.90
2020,06,09,23,12,12.90
2020,06,09,23,13,12.90
2020,06,09,23,14,12.90
2020,06,09,23,15,12.90
2020,06,09,23,16,12.90
2020,06,09,23,17,12.90
2020,06,09,23,18,12.90
2020,06,09,23,19,12.90
2020,06,09,23,20,12.90
2020,06,09,23,21,12.90
2020,06,09,23,22,12.90
2020,06,09,23,23,12.90
2020,06,09,23,24,12.90
2020,06,09,23,25,12.90
2020,06,09,23,26,12.90
2020,06,09,23,27,12.90
2020,06,09,23,28,12.90
2020,06,09,23,29,12.80
2020,06,09,23,30,12.80
2020,06,09,23,31,12.80
2020,06,09,23,32,12.80
2020,06,09,23,33,12.80
2020,06,09,23,34,12.80
2020,06,09,23,35,12.80
2020,06,09,23,36,12.80
2020,06,09,23,37,12.80
2020,06,09,23,38,12.80
2020,06,09,23,39,12.80
2020,06,09,23,40,12.80
2020,06,09,23,41,12.80
2020,06,09,23,42,12.80
2020,06,09,23,43,12.80
2020,06,09,23,44,12.80
2020,06,09,23,45,12.90
2020,06,09,23,46,12.90
2020,06,09,23,47,12.90
2020,06,09,23,48,12.90
2020,06,09,23,49,12.90
2020,06,09,23,50,12.90
2020,06,09,23,51,12.90
2020,06,09,23,52,12.90
2020,06,09,23,53,12.80
2020,06,09,23,54,12.80
2020,06,09,23,55,12.80
2020,06,09,23,56,12.80
2020,06,09,23,57,12.80
2020,06,09,23,58,12.80
2020,06,09,23,59,12.80
